Weather History for KCDC - March, 2013

Change the Weather History Date:

Friday, March 29, 2013

  Actual Average Record
Temperature  
Mean Temperature 50 °F 42 °F  
Max Temperature 66 °F 57 °F 74 °F (2015)
Min Temperature 33 °F 28 °F 6 °F (1975)
Degree Days  
Heating Degree Days 15 23  
Month to date heating degree days 633 729  
Since 1 July heating degree days 5253 5291  
Cooling Degree Days 0 0  
Month to date cooling degree days 0 0  
Year to date cooling degree days 0 0  
Moisture  
Dew Point 27 °F    
Average Humidity 47    
Maximum Humidity 70    
Minimum Humidity 23    
Precipitation  
Precipitation T in 0.04 in 0.52 in (1953)
Month to date precipitation 0.84 1.27  
Year to date precipitation 2.81 3.13  
Sea Level Pressure  
Sea Level Pressure 30.07 in    
Wind  
Wind Speed 2 mph (SW)    
Max Wind Speed 17 mph    
Max Gust Speed 31 mph    
Visibility 10 miles    
Events      
T = Trace of Precipitation, MM = Missing Value Source: NWS Daily Summary

Daily Weather History Graph

Daily Weather History Graph

Search for Another Location

Airport or City:

Trip Planner

Search our weather history database for the weather conditions in past years. The results will help you decide how hot, cold, wet, or windy it might be!

Date:

Astronomy

Mar. 29, 2013 Rise Set
Actual Time 7:21 AM MDT 7:52 PM MDT
Civil Twilight 6:55 AM MDT 8:19 PM MDT
Nautical Twilight 6:24 AM MDT 8:50 PM MDT
Astronomical Twilight 5:52 AM MDT 9:22 PM MDT
Moon 10:53 PM MDT (3/29) 8:36 AM MDT (3/29)
Length of Visible Light 13h 23m
Length of Day
12h 31m
Waning Gibbous, 93% of the Moon is Illuminated
Mar 29
Waning Gibbous
Apr 2
Last Quarter
Apr 10
New
Apr 18
First Quarter
Apr 25
Full

Hourly Weather History & Observations

Time (MDT) Temp. Windchill Dew Point Humidity Pressure Visibility Wind Dir Wind Speed Gust Speed Precip Events Conditions
12:53 AM 46.0 °F 43.1 °F 28.0 °F 50% 30.01 in 10.0 mi SSE 5.8 mph - N/A   Clear
1:53 AM 39.9 °F - 27.0 °F 60% 30.03 in 10.0 mi Calm Calm - N/A   Clear
2:53 AM 39.9 °F - 27.0 °F 60% 30.03 in 10.0 mi Calm Calm - N/A   Clear
3:53 AM 34.0 °F 28.8 °F 25.0 °F 70% 30.04 in 10.0 mi NNE 5.8 mph - N/A   Clear
4:53 AM 39.0 °F - 26.1 °F 60% 30.04 in 10.0 mi Calm Calm - N/A   Clear
5:53 AM 35.1 °F 32.2 °F 26.1 °F 70% 30.09 in 10.0 mi NNW 3.5 mph - N/A   Clear
6:53 AM 36.0 °F - 27.0 °F 70% 30.09 in 10.0 mi Calm Calm - N/A   Clear
7:53 AM 34.0 °F - 26.1 °F 73% 30.14 in 10.0 mi Calm Calm - N/A   Clear
8:53 AM 43.0 °F - 30.0 °F 60% 30.14 in 10.0 mi Calm Calm - N/A   Clear
9:53 AM 54.0 °F - 30.9 °F 41% 30.10 in 10.0 mi Calm Calm - N/A   Clear
10:53 AM 59.0 °F - 30.0 °F 33% 30.10 in 10.0 mi Calm Calm - N/A   Clear
11:53 AM 61.0 °F - 28.0 °F 29% 30.10 in 10.0 mi NW 4.6 mph - N/A   Clear
12:53 PM 62.1 °F - 24.1 °F 23% 30.08 in 10.0 mi Calm Calm - N/A   Clear
1:53 PM 64.0 °F - 25.0 °F 23% 30.08 in 10.0 mi NW 5.8 mph - N/A   Clear
2:53 PM 63.0 °F - 27.0 °F 26% 30.07 in 10.0 mi NW 3.5 mph - N/A   Mostly Cloudy
3:53 PM 64.0 °F - 26.1 °F 24% 30.07 in 10.0 mi SSW 9.2 mph - N/A   Mostly Cloudy
4:53 PM 66.0 °F - 28.0 °F 24% 30.04 in 10.0 mi South 9.2 mph 16.1 mph 0.00 in   Partly Cloudy
5:53 PM 64.0 °F - 28.0 °F 26% 30.05 in 10.0 mi West 5.8 mph - N/A   Scattered Clouds
6:53 PM 63.0 °F - 26.1 °F 25% 30.05 in 10.0 mi SW 6.9 mph - N/A   Clear
7:53 PM 57.0 °F - 28.0 °F 33% 30.07 in 10.0 mi South 3.5 mph - N/A   Clear
8:53 PM 52.0 °F - 28.0 °F 40% 30.08 in 10.0 mi SSE 4.6 mph - N/A   Clear
9:53 PM 50.0 °F - 27.0 °F 41% 30.08 in 10.0 mi SE 5.8 mph - N/A   Clear
10:53 PM 48.9 °F - 27.0 °F 43% 30.08 in 10.0 mi SE 8.1 mph - N/A   Clear
11:53 PM 45.0 °F - 27.0 °F 49% 30.09 in 10.0 mi Calm Calm - N/A   Clear